Regional Weather Roundup
Issued by NWS

Home | Current Version | Previous Version | Text Only | Print | Product List | Glossary On
Versions: 1 2 3 4 5 6 7 8 9 10 11 12 13 14 15 16 17 18 19 20 21 22 23 24 25 26 27 28 29 30 31 32 33 34 35 36 37 38 39 40 41 42 43 44 45 46 47 48 49 50
000
ASUS43 KIND 262300
RWRIN

WEATHER ROUNDUP FOR INDIANA
NATIONAL WEATHER SERVICE INDIANAPOLIS IN
700 PM EDT WED JUL 26 2017

NOTE: "FAIR" INDICATES FEW OR NO CLOUDS BELOW 12,000 FEET WITH NO
SIGNIFICANT WEATHER AND/OR OBSTRUCTIONS TO VISIBILITY.

* - STATION DOES NOT REPORT WEATHER SUCH AS PRECIPITATION OR FOG.

+ - STATION NOT QUALITY CONTROLLED BY THE NATIONAL WEATHER SERVICE.
    USE DATA WITH CAUTION...ESPECIALLY DEWPOINT AND RELATIVE
    HUMIDITY OBSERVATIONS.

INZ001>003-010>013-019-020-270000-
NORTHWEST INDIANA

CITY           SKY/WX    TMP DP  RH WIND       PRES   REMARKS
GARY /AIRPORT/ CLOUDY    82  68  61 S6        29.99F
MICHIGAN CITY+ PTSUNNY   79  70  73 CALM      30.00F
MONTICELLO +   CLOUDY    80  71  73 CALM      30.00F
RENSSELAER +   CLOUDY    81  70  69 SE5       30.00F

$$

LMZ046-743>745-270000-
SOUTHERN LAKE MICHIGAN

STATION/POSITION TIME  TEMP    WIND        PRES    WAVE
                       AIR SEA DIR/SP/G            HT
                 (UTC) (F)     (DEG/KT/KT) (MB)    (FT)
BURNS HARBOR     2200   82     210/ 10/ 11 1016.3
MICHIGAN CITY    2230   80     190/  5/  6   N/A
5NW MICH CITY    2250   77 76  100/  4/  6   N/A     0

$$

INZ004-005-014>016-021>024-270000-
NORTH CENTRAL INDIANA

CITY           SKY/WX    TMP DP  RH WIND       PRES   REMARKS
ELKHART        PTSUNNY   81  66  61 S6        30.02F
GOSHEN         MOSUNNY   80  64  58 S6        30.02F
SOUTH BEND     CLOUDY    80  68  66 SW8       30.02F

$$

INZ006>009-017-018-025>027-270000-
NORTHEAST INDIANA

CITY           SKY/WX    TMP DP  RH WIND       PRES   REMARKS
FORT WAYNE     CLOUDY    80  65  59 VRB3      30.04F
KENDALLVILLE + MOSUNNY   79  66  64 W5        30.05S

$$

INZ028-029-035-036-043>045-051>053-270000-
WEST CENTRAL INDIANA

CITY           SKY/WX    TMP DP  RH WIND       PRES   REMARKS
LAFAYETTE      CLOUDY    81  73  76 CALM      29.99F
TERRE HAUTE    MOSUNNY   85  76  74 SE3       29.98F

$$

INZ030>032-037>040-046>048-054>057-064-065-270000-
CENTRAL INDIANA

CITY           SKY/WX    TMP DP  RH WIND       PRES   REMARKS
COLUMBUS       SUNNY     82  70  65 CALM      30.01R
GREENWOOD *+   CLOUDY   N/A N/A N/A SE5       30.03F
INDIANAPOLIS   CLOUDY    82  71  69 SE7       30.01F
-EAGLE CREEK   CLOUDY    84  70  62 S5        30.01F
KOKOMO +       CLOUDY    79  72  79 SE5       30.04S
MT COMFORT *+  CLOUDY    82  70  65 S7        30.04F
SHELBYVILLE    CLOUDY    85  70  60 SE6       30.01F

$$

INZ033-034-041-042-049-050-058-059-270000-
EAST CENTRAL INDIANA

CITY           SKY/WX    TMP DP  RH WIND       PRES   REMARKS
MUNCIE         MOSUNNY   82  66  58 S6        30.03F
RICHMOND +     CLOUDY    77  68  73 CALM      30.07S

$$

INZ060-061-067>069-081>083-085>088-270000-
SOUTHWEST INDIANA

CITY           SKY/WX    TMP DP  RH WIND       PRES   REMARKS
EVANSVILLE     CLOUDY    78  73  84 SW15      30.02R THUNDER
HUNTINGBURG *+ CLOUDY    75  71  87 S10       30.01S

$$

INZ062-063-066-070>080-084-089>092-270000-
SOUTH CENTRAL AND SOUTHEAST INDIANA

CITY           SKY/WX    TMP DP  RH WIND       PRES   REMARKS
BLOOMINGTON    CLOUDY    85  72  65 SE8       30.00F
MADISON *+     CLOUDY    86  70  58 E3        30.04F
SEYMOUR +      PTSUNNY   88  73  62 E3        30.00F HX  96

$$





USA.gov is the U.S. government's official web portal to all federal, state and local government web resources and services.